#timestamp,LO_Frequency,Hit 
1500138015.5,286046999.6,N
1500138035.4,286046999.5,N
1500138055.2,286046998.3,N
1500138075.1,286046998.4,N
1500138076.0,286046998.4,N
1500138095.8,286046999.0,N
1500138115.6,286046999.5,N
1500138135.5,286046999.1,N
1500138155.3,286046998.9,N
1500138175.1,286046996.9,N
1500138195.9,286046996.6,N
1500138215.7,286046996.6,N
1500138235.6,286046998.1,N
1500138255.4,286047000.7,N
1500138275.2,286046998.1,N
1500138295.1,286046998.3,N
1500138296.0,286046998.3,N
1500138315.8,286046998.9,N
1500138335.6,286047000.7,N
1500138355.5,286046999.0,N
1500138375.3,286046996.7,N
1500138395.2,286046997.4,N
1500138415.9,286046999.6,N
1500138435.7,286046996.6,N
1500138455.6,286046997.2,N
1500138475.4,286046997.1,N
1500138495.2,286046996.5,N
1500138515.1,286046999.5,N
1500138516.0,286046999.5,N
1500138535.8,286046997.1,N
1500138555.7,286046995.3,N
1500138575.5,286046995.4,N
1500138595.3,286046995.5,N
1500138615.2,286046995.2,N
1500138635.9,286046995.4,N
1500138655.7,286046997.6,N
1500138675.6,286046995.1,N
1500138695.4,286046995.2,N
1500138715.3,286046995.1,N
1500138735.1,286046994.9,N
1500138736.0,286046994.9,N
1500138755.8,286046995.5,N
1500138775.7,286046996.2,N
1500138795.5,286046996.1,N
1500138815.3,286046996.0,N
1500138835.2,286046994.2,N
1500138855.0,286046994.0,N
1500138855.9,286046994.0,N
1500138875.8,286046993.6,N
1500138895.6,286046996.0,N
1500138915.4,286046996.2,N
1500138935.3,286046995.9,N
1500138955.1,286046993.4,N
1500138975.8,286046996.3,N
1500138995.7,286046994.6,N
1500139015.5,286046993.9,N
1500139035.4,286046993.3,N
1500139055.2,286046994.5,N
1500139075.0,286046991.7,N
1500139075.9,286046991.7,N
1500139095.8,286046994.6,N
1500139115.6,286046994.0,N
1500139135.4,286046993.7,N
1500139155.3,286046996.0,N
1500139175.1,286046996.1,N
1500139195.9,286046995.8,N
1500139215.7,286046995.6,N
1500139235.5,286046994.9,N
1500139255.4,286046995.5,N
1500139275.2,286046995.8,N
1500139295.0,286046996.4,N
1500139296.0,286046996.4,N
1500139315.8,286046994.1,N
1500139335.6,286046993.5,N
1500139355.5,286046996.0,N
1500139375.3,286046993.6,N
1500139395.1,286046993.8,N
1500139415.9,286046993.9,N
1500139435.7,286046993.4,N
1500139455.6,286046996.4,N
1500139475.4,286046995.1,N
1500139495.2,286046993.8,N
1500139515.1,286046993.3,N
1500139516.0,286046993.3,N
1500139535.8,286046996.3,N
1500139555.6,286046996.2,N
1500139575.5,286046996.0,N
1500139595.3,286046991.7,N
1500139615.2,286046993.5,N
1500139635.9,286046994.0,N
1500139655.7,286046993.5,N
1500139675.6,286046994.2,N
1500139695.4,286046992.3,N
1500139715.2,286046992.5,N
1500139735.1,286046992.6,N
1500139736.0,286046992.6,N
1500139755.8,286046993.0,N
1500139775.7,286046991.8,N
1500139795.5,286046994.2,N
1500139815.3,286046992.3,N
1500139835.2,286046992.7,N
1500139855.9,286046994.3,N
1500139875.7,286046992.3,N
1500139895.6,286046994.4,N
1500139915.4,286046994.2,N
1500139935.3,286046994.6,N
1500139955.1,286046996.4,N
1500139956.0,286046996.4,N
1500139975.8,286046995.7,N
1500139995.7,286046994.6,N
1500140015.5,286046994.4,N
1500140035.3,286046993.8,N
1500140055.2,286046992.1,N
1500140075.0,286046993.7,N
1500140075.9,286046993.7,N
1500140095.8,286046996.0,N
1500140115.6,286046995.6,N
1500140135.4,286046995.0,N
1500140155.3,286046995.1,N
1500140175.1,286046993.6,N
1500140195.9,286046995.1,N
1500140215.7,286046997.4,N
1500140235.5,286046996.6,N
1500140255.4,286046997.7,N
1500140275.2,286046997.4,N
1500140295.0,286046995.0,N
1500140295.9,286046995.0,N
1500140315.8,286046997.3,N
1500140335.6,286046997.1,N
1500140355.5,286046998.0,N
1500140375.3,286046999.6,N
1500140395.1,286046998.7,N
1500140415.9,286046997.8,N
1500140435.7,286046997.3,N
1500140455.5,286046995.2,N
1500140475.4,286046995.7,N
1500140495.2,286046993.8,N
1500140515.1,286046993.6,N
1500140516.0,286046993.6,N
1500140535.8,286046994.4,N
1500140555.6,286046994.2,N
1500140575.5,286046991.7,N
1500140595.3,286046994.6,N
1500140615.1,286046993.7,N
1500140635.9,286046993.8,N
1500140655.7,286046994.1,N
1500140675.6,286046994.0,N
1500140695.4,286046994.7,N
1500140715.2,286046993.6,N
1500140735.1,286046993.3,N
1500140736.0,286046993.3,N
1500140755.8,286046996.1,N
1500140775.6,286046993.7,N
1500140795.5,286046993.4,N
1500140815.3,286046995.9,N
1500140835.2,286046995.2,N
1500140855.9,286046994.6,N
1500140875.7,286046994.1,N
1500140895.6,286046996.2,N
1500140915.4,286046994.0,N
1500140935.2,286046994.3,N
1500140955.1,286046993.6,N
1500140956.0,286046993.6,N
1500140975.8,286046994.2,N
1500140995.7,286046994.7,N
1500141015.5,286046993.3,N
1500141035.3,286046996.1,N
1500141055.2,286046995.6,N
1500141075.0,286046993.4,N
1500141075.9,286046993.4,N
1500141095.7,286046994.2,N
1500141115.6,286046994.3,N
1500141135.4,286046993.6,N
1500141155.3,286046995.3,N
1500141175.1,286046994.0,N
1500141176.0,286046994.0,N
1500141195.8,286046996.4,N
1500141215.7,286046994.5,N
1500141235.5,286046996.4,N
1500141255.3,286046998.0,N
1500141275.2,286046993.9,N
1500141295.0,286046994.8,N
1500141295.9,286046994.8,N
1500141315.8,286046994.6,N
1500141335.6,286046994.8,N
1500141355.4,286046994.2,N
1500141375.3,286046994.5,N
1500141395.1,286046994.3,N
1500141415.9,286046991.8,N
1500141435.7,286046994.8,N
1500141455.5,286046992.2,N
1500141475.4,286046993.9,N
1500141495.2,286046994.0,N
1500141515.0,286046994.5,N
1500141516.0,286046994.5,N
1500141535.8,286046994.0,N
1500141555.6,286046995.9,N
1500141575.5,286046995.8,N
1500141595.3,286046996.4,N
